Weather in Piest'any

Slovakia     48°35′16″N   17°49′05″E
temp.,
°C
wind,
m/s
gust,
m/s
humid.,
%
clouds,
%
prec.,
mm/h
press.,
hPa
HPBL,
m
20 september, mon
mon2023:00+9n49730 0.0 1015221
02:00+7nnw348246 0.0 101668
05:00+8n3482100 0.0 1016130
08:00+9n3574100 0.0 1017239
11:00+15n555084 0.0 10171543
14:00+15n565092 0.0 10181606
17:00+14n5747100 0.0 10181183
20:00+11n335625 0.0 102050
21 september, tue
tue2123:00+8n34694 0.0 102257
02:00+7nnw35740 0.0 102390
05:00+6n33865 0.0 102453
08:00+7nne24775 0.0 1026140
11:00+13n344475 0.0 1026998
14:00+17n34365 0.0 10251642
17:00+16nnw66395 0.0 10241738
20:00+10nne3460100 0.0 102652
22 september, wed
wed2223:00+11nnw2258100 0.0 102642
02:00+10nw3460100 0.0 102693
05:00+10nw3560100 0.0 1024133
08:00+11nnw3960100 0.0 1024505
11:00+10nw4970100 0.1 1025811
14:00+11nnw5868100 0.1 1024992
17:00+12nnw4866100 0.0 1024743
20:00+10n2373100 0.0 1024105
23 september, thu
thu2323:00+9nnw227993 0.0 102322
02:00+8nw228366 0.0 102212
05:00+7nw22895 0.0 102220
08:00+9nnw12805 0.0 102197
11:00+15nw3456100 0.0 1020946
14:00+19w3447100 0.0 10171459
17:00+19wsw2448100 0.0 1016586
20:00+14ssw3359100 0.0 101549
24 september, fri
fri2423:00+12sw226786 0.0 101417
02:00+12wnw2474100 0.0 101477
05:00+12wnw367695 0.0 1013124
08:00+15w51461100 0.0 1013647
11:00+20wnw7114731 0.0 10131424
14:00+22wnw8114493 0.0 10122013
17:00+21wnw474974 0.0 1012795
20:00+17nw116348 0.0 101311